User: anonymous
Location: Bangkok
(13.7500°N, 100.5170°E)
Time: 12:31:44
(UTC+07:00)
Language:

ERBS - Orbit

View from above orbital plane
View from above orbital plane
View from above satellite
View from above satellite

Ground track
Ground track

The orbit data is extracted from the following two-line orbital elements,

1 15354U 84108B   14107.93290849  .00013137  00000-0  48870-3 0  4637
2 15354 057.0147 027.1153 0022581 086.3601 274.0029 15.27659517620410
Epoch (UTC): 17 April 2014 22:23:23
Eccentricity: 0.0022581
inclination: 57.0147°
perigee height: 467 km
apogee height: 498 km
right ascension of ascending node: 27.1153°
argument of perigee: 86.3601°
revolutions per day: 15.27659517
mean anomaly at epoch: 274.0029°
orbit number at epoch: 62041

The dashed part of the orbit path shows where the satellite is in the earth's shadow,  

DLR